Ft Pierce, FL

2:13 PM EDT on August 17, 2017 (GMT -0400)
Saint Lucie County International

Weather History for KFPR - February, 2014

Change the Weather History Date:

Tuesday, February 25, 2014

  Actual Average Record
Temperature  
Mean Temperature 70 °F -  
Max Temperature 79 °F 73 °F 85 °F (1944)
Min Temperature 62 °F 51 °F 28 °F (1989)
Cooling Degree Days 6    
Growing Degree Days 20 (Base 50)    
Moisture  
Dew Point 62 °F    
Average Humidity 85    
Maximum Humidity 96    
Minimum Humidity 60    
Precipitation  
Precipitation 0.00 in - - ()
Sea Level Pressure  
Sea Level Pressure 30.00 in    
Wind  
Wind Speed 2 mph (NW)    
Max Wind Speed 9 mph    
Max Gust Speed -    
Visibility 5 miles    
Events Fog    
Averages and records for this station are not official NWS values.
T = Trace of Precipitation, MM = Missing Value Source: NWS Daily Summary

Daily Weather History Graph

Daily Weather History Graph

Search for Another Location

Airport or City:

Trip Planner

Search our weather history database for the weather conditions in past years. The results will help you decide how hot, cold, wet, or windy it might be!

Date:

Astronomy

Feb. 25, 2014 Rise Set
Actual Time 6:49 AM EST 6:19 PM EST
Civil Twilight 6:26 AM EST 6:43 PM EST
Nautical Twilight 5:58 AM EST 7:10 PM EST
Astronomical Twilight 5:31 AM EST 7:37 PM EST
Moon 3:28 AM EST (2/25) 2:37 PM EST (2/25)
Length of Visible Light 12h 17m
Length of Day
11h 30m
Waning Crescent, 18% of the Moon is Illuminated
Feb 25
Waning Crescent
Mar 1
New
Mar 8
First Quarter
Mar 16
Full
Mar 23
Last Quarter

Hourly Weather History & Observations

Time (EST) Temp. Dew Point Humidity Pressure Visibility Wind Dir Wind Speed Gust Speed Precip Events Conditions
12:53 AM 66.0 °F 64.0 °F 93% 30.04 in 5.0 mi Calm Calm - N/A   Scattered Clouds
1:53 AM 64.9 °F 63.0 °F 93% 30.02 in 4.0 mi Calm Calm - N/A   Scattered Clouds
2:23 AM 64.9 °F 63.0 °F 93% 30.01 in 2.5 mi Calm Calm - N/A   Clear
2:41 AM 64.9 °F 63.0 °F 93% 30.01 in 3.0 mi NW 3.5 mph - N/A   Clear
2:53 AM 64.9 °F 63.0 °F 93% 30.00 in 2.5 mi Calm Calm - N/A   Clear
3:14 AM 64.0 °F 62.1 °F 93% 29.99 in 1.0 mi Calm Calm - N/A   Clear
3:34 AM 64.0 °F 62.1 °F 93% 29.99 in 2.5 mi Calm Calm - N/A   Clear
3:41 AM 64.9 °F 62.1 °F 90% 29.99 in 4.0 mi West 3.5 mph - N/A   Clear
3:53 AM 64.0 °F 62.1 °F 93% 29.99 in 3.0 mi Calm Calm - N/A   Clear
4:14 AM 64.0 °F 61.0 °F 90% 29.99 in 1.8 mi NW 4.6 mph - N/A   Clear
4:24 AM 64.0 °F 62.1 °F 93% 29.99 in 3.0 mi WNW 3.5 mph - N/A   Clear
4:53 AM 63.0 °F 61.0 °F 93% 29.99 in 3.0 mi WNW 3.5 mph - N/A   Clear
4:59 AM 63.0 °F 61.0 °F 93% 29.99 in 1.5 mi WNW 3.5 mph - N/A   Clear
5:03 AM 63.0 °F 61.0 °F 93% 29.99 in 0.5 mi WNW 3.5 mph - N/A Fog Fog
5:11 AM 62.1 °F 60.1 °F 93% 29.99 in 0.5 mi Calm Calm - N/A Fog Fog
5:13 AM 62.1 °F 60.1 °F 93% 29.99 in 1.0 mi West 3.5 mph - N/A   Mist
5:15 AM 62.1 °F 60.1 °F 93% 29.99 in 2.0 mi West 3.5 mph - N/A   Clear
5:25 AM 62.1 °F 60.1 °F 93% 29.99 in 1.2 mi West 3.5 mph - N/A   Partly Cloudy
5:27 AM 62.1 °F 60.1 °F 93% 29.99 in 0.8 mi WNW 3.5 mph - N/A   Mist
5:37 AM 62.1 °F 60.1 °F 93% 30.00 in 0.5 mi WNW 3.5 mph - N/A Fog Fog
5:53 AM 62.1 °F 60.1 °F 93% 30.00 in 0.5 mi West 3.5 mph - N/A Fog Fog
5:58 AM 62.1 °F 60.1 °F 93% 30.00 in 0.8 mi West 3.5 mph - N/A   Scattered Clouds
6:04 AM 63.0 °F 61.0 °F 93% 30.00 in 2.5 mi West 3.5 mph - N/A   Mostly Cloudy
6:08 AM 62.1 °F 61.0 °F 96% 30.00 in 4.0 mi West 3.5 mph - N/A   Scattered Clouds
6:23 AM 62.1 °F 60.1 °F 93% 30.01 in 2.5 mi West 3.5 mph - N/A   Mostly Cloudy
6:37 AM 63.0 °F 61.0 °F 93% 30.01 in 4.0 mi WNW 3.5 mph - N/A   Mostly Cloudy
6:53 AM 63.0 °F 61.0 °F 93% 30.02 in 3.0 mi Calm Calm - N/A   Mostly Cloudy
7:25 AM 64.9 °F 63.0 °F 93% 30.02 in 4.0 mi Calm Calm - N/A   Scattered Clouds
7:53 AM 66.9 °F 64.0 °F 90% 30.02 in 4.0 mi WNW 3.5 mph - N/A   Clear
8:53 AM 71.1 °F 66.0 °F 84% 30.04 in 9.0 mi NW 4.6 mph - N/A   Mostly Cloudy
9:16 AM 72.0 °F 66.0 °F 81% 30.04 in 10.0 mi WNW 4.6 mph - N/A   Mostly Cloudy
9:46 AM 73.9 °F 64.9 °F 73% 30.05 in 10.0 mi NNW 4.6 mph - N/A   Mostly Cloudy
9:53 AM 75.0 °F 64.9 °F 71% 30.05 in 10.0 mi NW 5.8 mph - N/A   Mostly Cloudy
10:18 AM 77.0 °F 64.9 °F 66% 30.05 in 10.0 mi WNW 5.8 mph - N/A   Overcast
10:53 AM 77.0 °F 64.0 °F 64% 30.05 in 10.0 mi NW 5.8 mph - N/A   Overcast
11:53 AM 79.0 °F 64.0 °F 60% 30.02 in 10.0 mi North - - N/A   Mostly Cloudy
12:53 PM 77.0 °F 64.9 °F 66% 29.99 in 10.0 mi NNE 6.9 mph - N/A   Mostly Cloudy
1:00 PM 77.0 °F 64.0 °F 64% 29.99 in 10.0 mi NE 5.8 mph - N/A   Mostly Cloudy
1:53 PM 78.1 °F 64.0 °F 62% 29.96 in 10.0 mi NNE 8.1 mph - N/A   Overcast
2:53 PM 78.1 °F 63.0 °F 60% 29.95 in 10.0 mi ENE 9.2 mph - N/A   Clear
3:53 PM 77.0 °F 63.0 °F 62% 29.94 in 10.0 mi NE 8.1 mph - N/A   Clear
4:53 PM 75.0 °F 63.0 °F 66% 29.96 in 10.0 mi NE 6.9 mph - N/A   Clear
5:53 PM 72.0 °F 63.0 °F 73% 29.97 in 10.0 mi Calm Calm - N/A   Clear
6:53 PM 70.0 °F 63.0 °F 78% 29.98 in 10.0 mi ENE 3.5 mph - N/A   Clear
7:53 PM 66.0 °F 62.1 °F 87% 29.98 in 10.0 mi East 3.5 mph - N/A   Clear
8:53 PM 64.9 °F 61.0 °F 87% 29.99 in 10.0 mi Calm Calm - N/A   Clear
9:53 PM 62.1 °F 60.1 °F 93% 29.99 in 7.0 mi Calm Calm - N/A   Clear
10:53 PM 62.1 °F 60.1 °F 93% 29.99 in 7.0 mi Calm Calm - N/A   Clear
11:53 PM 62.1 °F 59.0 °F 90% 29.98 in 7.0 mi Calm Calm - N/A   Scattered Clouds